TimeMDT,TemperatureF,Dew PointF,Humidity,Sea Level PressureIn,VisibilityMPH,Wind Direction,Wind SpeedMPH,Gust SpeedMPH,PrecipitationIn,Events,Conditions,WindDirDegrees,DateUTC
12:53 AM,57.9,46.0,65,29.78,10.0,SSW,13.8,-,N/A,,Clear,210,2013-08-02 06:53:00
1:00 AM,57.2,46.4,67,30.16,10.0,SW,9.2,-,N/A,,Clear,220,2013-08-02 07:00:00
1:53 AM,55.9,46.0,69,29.82,10.0,SSE,8.1,-,N/A,,Clear,160,2013-08-02 07:53:00
2:53 AM,54.0,45.0,72,29.86,10.0,South,10.4,-,N/A,,Clear,180,2013-08-02 08:53:00
3:53 AM,55.0,45.0,69,29.86,10.0,South,6.9,-,N/A,,Clear,190,2013-08-02 09:53:00
4:53 AM,55.0,45.0,69,29.86,10.0,South,11.5,-,N/A,,Partly Cloudy,180,2013-08-02 10:53:00
5:53 AM,54.0,45.0,72,29.88,10.0,SSE,5.8,-,N/A,,Clear,160,2013-08-02 11:53:00
6:53 AM,57.9,46.0,65,29.88,10.0,North,-9999.0,-,N/A,,Clear,0,2013-08-02 12:53:00
7:53 AM,64.9,46.0,50,29.88,10.0,North,-9999.0,-,N/A,,Clear,0,2013-08-02 13:53:00
8:53 AM,69.1,48.0,47,29.89,10.0,West,11.5,-,N/A,,Clear,260,2013-08-02 14:53:00
9:53 AM,73.0,46.9,39,29.88,10.0,West,20.7,27.6,N/A,,Clear,270,2013-08-02 15:53:00
10:53 AM,75.9,44.1,32,29.87,10.0,West,19.6,29.9,N/A,,Clear,260,2013-08-02 16:53:00
11:53 AM,78.1,39.9,25,29.86,10.0,West,24.2,31.1,N/A,,Clear,280,2013-08-02 17:53:00
12:53 PM,79.0,39.0,24,29.84,10.0,WNW,21.9,27.6,N/A,,Partly Cloudy,290,2013-08-02 18:53:00
1:53 PM,80.1,34.0,19,29.84,10.0,West,16.1,19.6,N/A,,Scattered Clouds,270,2013-08-02 19:53:00
2:53 PM,80.1,35.1,20,29.85,10.0,WNW,10.4,21.9,N/A,,Partly Cloudy,290,2013-08-02 20:53:00
3:53 PM,80.1,36.0,20,29.83,10.0,West,11.5,18.4,N/A,,Scattered Clouds,280,2013-08-02 21:53:00
4:08 PM,82.4,35.6,19,30.18,10.0,West,8.1,17.3,N/A,,Mostly Cloudy,270,2013-08-02 22:08:00
4:53 PM,81.0,32.0,17,29.83,10.0,West,13.8,21.9,N/A,,Scattered Clouds,280,2013-08-02 22:53:00
5:53 PM,82.0,32.0,16,29.83,10.0,West,17.3,26.5,N/A,,Mostly Cloudy,270,2013-08-02 23:53:00
6:53 PM,80.1,30.9,17,29.82,10.0,West,10.4,-,N/A,,Mostly Cloudy,270,2013-08-03 00:53:00
7:53 PM,75.9,36.0,23,29.82,10.0,SSW,5.8,-,N/A,,Mostly Cloudy,210,2013-08-03 01:53:00
8:53 PM,72.0,36.0,27,29.83,10.0,Calm,Calm,-,N/A,,Clear,0,2013-08-03 02:53:00
9:53 PM,66.0,54.0,65,29.87,10.0,SSE,12.7,-,N/A,,Partly Cloudy,150,2013-08-03 03:53:00
10:53 PM,64.9,53.1,65,29.86,10.0,SSE,13.8,-,N/A,,Clear,150,2013-08-03 04:53:00
11:53 PM,64.0,54.0,70,29.86,10.0,SSE,16.1,-,N/A,,Clear,150,2013-08-03 05:53:00